Whiting Fld NAS, FL

12:28 PM CDT on April 26, 2018 (GMT -0500)
Whiting Field Naval Air Station (North)

Weather History for KNSE - February, 2013

Change the Weather History Date:

Tuesday, February 26, 2013

  Actual Average Record
Temperature  
Mean Temperature 57 °F -  
Max Temperature 66 °F 64 °F 81 °F (2011)
Min Temperature 48 °F 46 °F 34 °F (2017)
Degree Days  
Heating Degree Days 8    
Growing Degree Days 7 (Base 50)    
Moisture  
Dew Point 50 °F    
Average Humidity 72    
Maximum Humidity 94    
Minimum Humidity 39    
Precipitation  
Precipitation 0.38 in - - ()
Sea Level Pressure  
Sea Level Pressure 29.65 in    
Wind  
Wind Speed 13 mph (SW)    
Max Wind Speed 17 mph    
Max Gust Speed 22 mph    
Visibility 8 miles    
Events Rain    
Averages and records for this station are not official NWS values.
T = Trace of Precipitation, MM = Missing Value Source: NWS Daily Summary

Daily Weather History Graph

Daily Weather History Graph

Search for Another Location

Airport or City:

Astronomy

Feb. 26, 2013 Rise Set
Actual Time 6:17 AM CST 5:44 PM CST
Civil Twilight 5:53 AM CST 6:09 PM CST
Nautical Twilight 5:25 AM CST 6:37 PM CST
Astronomical Twilight 4:57 AM CST 7:04 PM CST
Moon 6:51 PM CST 6:26 AM CST
Length of Visible Light 12h 15m
Length of Day
11h 27m
Full, 99% of the Moon is Illuminated
Feb 26
Full
Mar 4
Last Quarter
Mar 11
New
Mar 19
First Quarter
Mar 27
Full

Hourly Weather History & Observations

Time (CST) Temp. Dew Point Humidity Pressure Visibility Wind Dir Wind Speed Gust Speed Precip Events Conditions
12:01 AM 66.2 °F 64.4 °F 94% 29.54 in 2.5 mi SSE 17.3 mph - 0.05 in Rain Heavy Rain
12:14 AM 66.2 °F 64.4 °F 94% 29.54 in 3.0 mi SSE 17.3 mph - 0.15 in Rain Rain
12:22 AM 66.2 °F 64.4 °F 94% 29.56 in 2.5 mi South 15.0 mph - 0.21 in Rain Heavy Rain
12:30 AM 66.2 °F 64.4 °F 94% 29.56 in 1.5 mi South 16.1 mph - 0.34 in Rain Heavy Rain
12:36 AM 66.2 °F 64.4 °F 94% 29.56 in 2.0 mi South 13.8 mph - 0.36 in Rain Heavy Rain
12:41 AM 66.2 °F 64.4 °F 94% 29.56 in 4.0 mi SSW 13.8 mph - 0.36 in Rain Light Rain
12:48 AM 66.2 °F 64.4 °F 94% 29.56 in 8.0 mi SSW 11.5 mph - 0.37 in Rain Light Rain
12:56 AM 66.9 °F 64.9 °F 93% 29.51 in 5.0 mi SSW 10.4 mph - 0.38 in Rain Light Rain
1:56 AM 66.0 °F 64.0 °F 93% 29.49 in 10.0 mi SW 8.1 mph - 0.00 in   Mostly Cloudy
2:09 AM 66.2 °F 62.6 °F 88% 29.53 in 10.0 mi WSW 11.5 mph - N/A   Mostly Cloudy
2:56 AM 63.0 °F 57.9 °F 84% 29.49 in 10.0 mi WSW 8.1 mph - N/A   Mostly Cloudy
3:56 AM 61.0 °F 54.0 °F 78% 29.52 in 10.0 mi SW 9.2 mph - N/A   Mostly Cloudy
4:56 AM 57.0 °F 48.0 °F 72% 29.55 in 10.0 mi SW 8.1 mph - N/A   Partly Cloudy
5:56 AM 55.0 °F 46.0 °F 72% 29.57 in 10.0 mi WSW 8.1 mph - N/A   Mostly Cloudy
6:56 AM 55.0 °F 45.0 °F 69% 29.60 in 10.0 mi SW 8.1 mph - N/A   Mostly Cloudy
7:56 AM 55.9 °F 44.1 °F 64% 29.64 in 10.0 mi WSW 11.5 mph 17.3 mph N/A   Mostly Cloudy
8:56 AM 55.9 °F 43.0 °F 62% 29.66 in 10.0 mi WSW 12.7 mph - N/A   Mostly Cloudy
9:56 AM 57.9 °F 41.0 °F 53% 29.68 in 10.0 mi West 13.8 mph 21.9 mph N/A   Scattered Clouds
10:56 AM 60.1 °F 39.0 °F 46% 29.69 in 10.0 mi West 17.3 mph 21.9 mph N/A   Scattered Clouds
11:56 AM 60.1 °F 39.0 °F 46% 29.69 in 10.0 mi WSW 12.7 mph 21.9 mph N/A   Scattered Clouds
12:56 PM 62.1 °F 37.9 °F 41% 29.68 in 10.0 mi West 13.8 mph - N/A   Scattered Clouds
1:56 PM 62.1 °F 37.0 °F 39% 29.67 in 10.0 mi WSW 11.5 mph 21.9 mph N/A   Scattered Clouds
2:56 PM 60.1 °F 39.0 °F 46% 29.68 in 10.0 mi SW 10.4 mph - N/A   Scattered Clouds
3:56 PM 57.9 °F 42.1 °F 56% 29.69 in 10.0 mi SSW 16.1 mph - N/A   Scattered Clouds
4:56 PM 55.0 °F 41.0 °F 59% 29.73 in 10.0 mi SSW 15.0 mph - N/A   Mostly Cloudy
5:56 PM 53.1 °F 41.0 °F 64% 29.75 in 10.0 mi WSW 8.1 mph - N/A   Mostly Cloudy
6:56 PM 53.1 °F 41.0 °F 64% 29.78 in 10.0 mi West 9.2 mph - N/A   Mostly Cloudy
7:56 PM 52.0 °F 41.0 °F 66% 29.81 in 10.0 mi WSW 9.2 mph - N/A   Mostly Cloudy
8:56 PM 51.1 °F 41.0 °F 68% 29.84 in 10.0 mi West 6.9 mph - N/A   Mostly Cloudy
9:56 PM 50.0 °F 41.0 °F 71% 29.86 in 10.0 mi WNW 4.6 mph - N/A   Mostly Cloudy
10:56 PM 48.9 °F 42.1 °F 77% 29.88 in 10.0 mi WNW 4.6 mph - N/A   Mostly Cloudy
11:56 PM 48.9 °F 42.1 °F 77% 29.89 in 10.0 mi West 5.8 mph - N/A   Clear